Time,TemperatureF,DewpointF,PressureIn,WindDirection,WindDirectionDegrees,WindSpeedMPH,WindSpeedGustMPH,Humidity,HourlyPrecipIn,Conditions,Clouds,dailyrainin,SolarRadiationWatts/m^2,SoftwareType,DateUTC
2013-01-07 00:00:00,24.0,-99.9,44.89,NW,322,5.0,18.0,-999,-99.99,,,0.00,0.000000,,2013-01-07 07:00:00,
2013-01-07 00:53:00,24.0,-99.9,44.89,NW,322,5.0,18.0,-999,-99.99,,,0.00,0.000000,,2013-01-07 07:53:00,
2013-01-07 01:00:00,23.0,-99.9,-100.00,NW,316,4.0,16.0,-999,-99.99,,,0.00,0.000000,,2013-01-07 08:00:00,
2013-01-07 01:53:00,23.0,-99.9,-100.00,NW,316,4.0,16.0,-999,-99.99,,,0.00,0.000000,,2013-01-07 08:53:00,
2013-01-07 02:00:00,22.0,-99.9,44.89,NNW,345,3.0,10.0,-999,-99.99,,,0.00,5.500000,,2013-01-07 09:00:00,
2013-01-07 02:53:00,22.0,-99.9,44.89,NNW,345,3.0,10.0,-999,-99.99,,,0.00,5.500000,,2013-01-07 09:53:00,
2013-01-07 03:00:00,21.0,-99.9,44.89,NW,314,1.0,6.0,-999,-99.99,,,0.00,0.000000,,2013-01-07 10:00:00,
2013-01-07 03:53:00,21.0,-99.9,44.89,NW,314,1.0,6.0,-999,-99.99,,,0.00,0.000000,,2013-01-07 10:53:00,
2013-01-07 04:00:00,20.0,-99.9,-100.00,WNW,286,0.0,2.0,-999,-99.99,,,0.00,0.000000,,2013-01-07 11:00:00,
2013-01-07 04:53:00,20.0,-99.9,-100.00,WNW,286,0.0,2.0,-999,-99.99,,,0.00,0.000000,,2013-01-07 11:53:00,
2013-01-07 05:00:00,17.0,-99.9,-100.00,WNW,284,0.0,2.0,-999,-99.99,,,0.00,0.000000,,2013-01-07 12:00:00,
2013-01-07 05:53:00,17.0,-99.9,-100.00,WNW,284,0.0,2.0,-999,-99.99,,,0.00,0.000000,,2013-01-07 12:53:00,
2013-01-07 06:00:00,15.0,-99.9,44.89,South,188,0.0,3.0,-999,-99.99,,,-99.99,6.100000,,2013-01-07 13:00:00,
2013-01-07 06:53:00,15.0,-99.9,44.89,South,188,0.0,3.0,-999,-99.99,,,-99.99,6.100000,,2013-01-07 13:53:00,
2013-01-07 07:00:00,18.0,-99.9,44.89,WSW,245,1.0,9.0,-999,-99.99,,,-99.99,0.000000,,2013-01-07 14:00:00,
2013-01-07 07:53:00,18.0,-99.9,44.89,WSW,245,1.0,9.0,-999,-99.99,,,-99.99,0.000000,,2013-01-07 14:53:00,
2013-01-07 08:00:00,16.0,-99.9,-100.00,WNW,284,1.0,5.0,-999,-99.99,,,-99.99,0.000000,,2013-01-07 15:00:00,
2013-01-07 08:53:00,16.0,-99.9,-100.00,WNW,284,1.0,5.0,-999,-99.99,,,-99.99,0.000000,,2013-01-07 15:53:00,
2013-01-07 09:00:00,22.0,-99.9,-100.00,SW,225,1.0,4.0,-999,-99.99,,,-99.99,2.100000,,2013-01-07 16:00:00,
2013-01-07 09:53:00,22.0,-99.9,-100.00,SW,225,1.0,4.0,-999,-99.99,,,-99.99,2.100000,,2013-01-07 16:53:00,
2013-01-07 10:00:00,24.0,-99.9,44.89,WNW,282,1.0,7.0,-999,-99.99,,,-99.99,7.600000,,2013-01-07 17:00:00,
2013-01-07 10:53:00,24.0,-99.9,44.89,WNW,282,1.0,7.0,-999,-99.99,,,-99.99,7.600000,,2013-01-07 17:53:00,
2013-01-07 11:00:00,28.0,-99.9,44.89,NW,304,2.0,8.0,-999,-99.99,,,-99.99,3.400000,,2013-01-07 18:00:00,
2013-01-07 11:53:00,28.0,-99.9,44.89,NW,304,2.0,8.0,-999,-99.99,,,-99.99,3.400000,,2013-01-07 18:53:00,
2013-01-07 12:00:00,28.0,-99.9,-100.00,WNW,297,2.0,11.0,-999,-99.99,,,-99.99,2.800000,,2013-01-07 19:00:00,
2013-01-07 12:53:00,28.0,-99.9,-100.00,WNW,297,2.0,11.0,-999,-99.99,,,-99.99,2.800000,,2013-01-07 19:53:00,
2013-01-07 13:00:00,29.0,-99.9,-100.00,North,-999,-999.0,-999.0,-999,-99.99,,,0.00,,,2013-01-07 20:00:00,
2013-01-07 13:53:00,29.0,-99.9,-100.00,North,-999,-999.0,-999.0,-999,-99.99,,,0.00,,,2013-01-07 20:53:00,
2013-01-07 14:00:00,29.0,-99.9,44.89,SSE,155,1.0,5.0,-999,-99.99,,,0.00,4.600000,,2013-01-07 21:00:00,
2013-01-07 14:53:00,29.0,-99.9,44.89,SSE,155,1.0,5.0,-999,-99.99,,,0.00,4.600000,,2013-01-07 21:53:00,
2013-01-07 15:00:00,28.0,-99.9,-100.00,WSW,249,1.0,6.0,-999,-99.99,,,0.00,2.100000,,2013-01-07 22:00:00,
2013-01-07 15:53:00,28.0,-99.9,-100.00,WSW,249,1.0,6.0,-999,-99.99,,,0.00,2.100000,,2013-01-07 22:53:00,
2013-01-07 16:00:00,28.0,-99.9,44.89,WNW,297,1.0,4.0,-999,-99.99,,,-99.99,1.200000,,2013-01-07 23:00:00,
2013-01-07 16:53:00,28.0,-99.9,44.89,WNW,297,1.0,4.0,-999,-99.99,,,-99.99,1.200000,,2013-01-07 23:53:00,
2013-01-07 17:00:00,23.0,-99.9,-100.00,West,263,1.0,3.0,-999,-99.99,,,-99.99,4.900000,,2013-01-08 00:00:00,
2013-01-07 17:53:00,23.0,-99.9,-100.00,West,263,1.0,3.0,-999,-99.99,,,-99.99,4.900000,,2013-01-08 00:53:00,
2013-01-07 18:00:00,17.0,-99.9,44.89,WSW,247,0.0,1.0,-999,-99.99,,,-99.99,0.000000,,2013-01-08 01:00:00,
2013-01-07 18:53:00,17.0,-99.9,44.89,WSW,247,0.0,1.0,-999,-99.99,,,-99.99,0.000000,,2013-01-08 01:53:00,
2013-01-07 19:00:00,15.0,-99.9,44.89,North,-999,-999.0,-999.0,-999,-99.99,,,-99.99,,,2013-01-08 02:00:00,
2013-01-07 19:53:00,15.0,-99.9,44.89,North,-999,-999.0,-999.0,-999,-99.99,,,-99.99,,,2013-01-08 02:53:00,
2013-01-07 20:00:00,24.0,-99.9,-100.00,SW,225,2.0,7.0,-999,-99.99,,,-99.99,0.000000,,2013-01-08 03:00:00,
2013-01-07 21:00:00,19.0,-99.9,-100.00,SW,227,1.0,5.0,-999,-99.99,,,-99.99,0.000000,,2013-01-08 04:00:00,
2013-01-07 22:00:00,14.0,-99.9,-100.00,South,189,1.0,4.0,-999,-99.99,,,-99.99,0.000000,,2013-01-08 05:00:00,
2013-01-07 22:53:00,14.0,-99.9,-100.00,South,189,1.0,4.0,-999,-99.99,,,-99.99,0.000000,,2013-01-08 05:53:00,
2013-01-07 23:00:00,15.0,-99.9,44.89,SSW,201,1.0,3.0,-999,-99.99,,,-99.99,0.000000,,2013-01-08 06:00:00,
2013-01-07 23:53:00,15.0,-99.9,44.89,SSW,201,1.0,3.0,-999,-99.99,,,-99.99,0.000000,,2013-01-08 06:53:00,